Location: Newark
(13.8625°N, 100.5144°E)
Time: 19:18:34
(UTC+00:00)

Envisat - Visible Passes

Search period start: 01 December 2021 00:00
Search period end: 11 December 2021 00:00
Orbit: 764 x 766 km, 98.2° (Epoch: 01 December)

Date Brightness Start Highest point End Pass type
(mag) Time Alt. Az. Time Alt. Az. Time Alt. Az.
01 Dec 5.9 20:59:24 10° ENE 21:01:58 14° E 21:04:32 10° SE visible
01 Dec 3.5 22:36:15 10° N 22:40:50 36° WNW 22:45:27 10° SW visible
02 Dec 3.0 21:59:02 10° NNE 22:04:06 81° ESE 22:09:10 10° S visible
03 Dec 4.9 21:22:57 10° NE 21:27:17 29° E 21:31:37 10° SSE visible
03 Dec 4.3 23:02:38 10° NNW 23:05:59 18° WNW 23:09:21 10° WSW visible
04 Dec 3.1 22:24:27 10° N 22:29:20 49° WNW 22:34:13 10° SSW visible
05 Dec 3.5 21:47:35 10° NNE 21:52:34 59° ESE 21:57:33 10° S visible
06 Dec 5.4 21:11:57 10° NE 21:15:44 21° E 21:19:30 10° SSE visible
06 Dec 4.0 22:50:28 10° NNW 22:54:30 24° WNW 22:58:33 10° SW visible
07 Dec 2.9 22:12:47 10° N 22:17:49 68° WNW 22:22:50 10° SSW visible
08 Dec 4.1 21:36:14 10° NNE 21:41:01 43° E 21:45:49 10° S visible
09 Dec 5.8 21:01:14 10° ENE 21:04:09 15° E 21:07:05 10° SE visible
09 Dec 3.6 22:38:31 10° NNW 22:43:01 33° WNW 22:47:30 10° SW visible
10 Dec 2.9 22:01:13 10° NNE 22:06:17 88° ESE 22:11:22 10° SSW visible
